Change the Weather History Date:

Saturday, October 6, 2012

  Actual Average Record
Temperature  
Mean Temperature 66 °F -  
Max Temperature 79 °F 72 °F 94 °F (1951)
Min Temperature 53 °F 48 °F 35 °F (1964)
Growing Degree Days 16 (Base 50)    
Moisture  
Dew Point 56 °F    
Average Humidity 80    
Maximum Humidity 100    
Minimum Humidity 46    
Precipitation  
Precipitation 0.01 in - - ()
Sea Level Pressure  
Sea Level Pressure 29.94 in    
Wind  
Wind Speed 1 mph (NNW)    
Max Wind Speed 9 mph    
Max Gust Speed -    
Visibility 6 miles    
Events Fog    
Averages and records for this station are not official NWS values.
T = Trace of Precipitation, MM = Missing Value Source: NWS Daily Summary

Daily Weather History Graph

Daily Weather History Graph

Search for Another Location

Airport or City:

Trip Planner

Search our weather history database for the weather conditions in past years. The results will help you decide how hot, cold, wet, or windy it might be!

Date:

Astronomy

Oct. 06, 2012 Rise Set
Actual Time 7:24 AM EDT 7:01 PM EDT
Civil Twilight 6:59 AM EDT 7:26 PM EDT
Nautical Twilight 6:29 AM EDT 7:56 PM EDT
Astronomical Twilight 6:00 AM EDT 8:26 PM EDT
Moon 11:24 PM EDT (10/6) 1:09 PM EDT (10/6)
Length of Visible Light 12h 27m
Length of Day
11h 36m
Waning Gibbous, 65% of the Moon is Illuminated
Oct 6
Waning Gibbous
Oct 8
Last Quarter
Oct 15
New
Oct 21
First Quarter
Oct 29
Full

Hourly Weather History & Observations

Time (EDT) Temp. Dew Point Humidity Pressure Visibility Wind Dir Wind Speed Gust Speed Precip Events Conditions
12:53 AM 60.1 °F 57.0 °F 90% 29.98 in 10.0 mi Calm Calm - N/A   Clear
1:53 AM 59.0 °F 55.9 °F 90% 29.96 in 10.0 mi Calm Calm - N/A   Clear
2:53 AM 57.9 °F 55.9 °F 93% 29.95 in 7.0 mi Calm Calm - N/A   Clear
3:53 AM 57.0 °F 55.0 °F 93% 29.93 in 4.0 mi Calm Calm - 0.01 in   Clear
4:38 AM 55.4 °F 53.6 °F 94% 29.97 in 2.0 mi Calm Calm - N/A   Partly Cloudy
4:40 AM 55.4 °F 53.6 °F 94% 29.97 in 1.0 mi Calm Calm - N/A   Mist
4:48 AM 55.4 °F 53.6 °F 94% 29.97 in 0.8 mi Calm Calm - N/A   Mist
4:53 AM 55.0 °F 54.0 °F 96% 29.91 in 1.0 mi Calm Calm - N/A   Mist
5:02 AM 53.6 °F 53.6 °F 100% 29.97 in 0.5 mi Calm Calm - N/A Fog Fog
5:26 AM 55.4 °F 53.6 °F 94% 29.98 in 0.2 mi Calm Calm - N/A Fog Fog
5:33 AM 55.4 °F 53.6 °F 94% 29.98 in 1.0 mi Calm Calm - N/A   Mist
5:37 AM 55.4 °F 55.4 °F 100% 29.98 in 2.0 mi Calm Calm - N/A   Scattered Clouds
5:53 AM 55.9 °F 54.0 °F 93% 29.94 in 5.0 mi Calm Calm - N/A   Partly Cloudy
6:53 AM 55.0 °F 53.1 °F 93% 29.94 in 7.0 mi Calm Calm - N/A   Clear
7:07 AM 53.6 °F 53.6 °F 100% 29.99 in 1.0 mi Calm Calm - N/A   Clear
7:25 AM 55.4 °F 53.6 °F 94% 29.98 in 4.0 mi Calm Calm - N/A   Clear
7:53 AM 54.0 °F 53.1 °F 97% 29.95 in 5.0 mi North 3.5 mph - N/A   Clear
8:53 AM 57.9 °F 55.9 °F 93% 29.95 in 8.0 mi Calm Calm - N/A   Clear
10:53 AM 71.1 °F 59.0 °F 66% 29.91 in 10.0 mi Variable 3.5 mph - N/A   Partly Cloudy
11:53 AM 75.9 °F 57.9 °F 54% 29.91 in 10.0 mi West 5.8 mph - N/A   Scattered Clouds
12:53 PM 78.1 °F 55.9 °F 46% 29.91 in 10.0 mi WNW 6.9 mph - N/A   Clear
1:53 PM 78.1 °F 55.9 °F 46% 29.89 in 10.0 mi Variable 3.5 mph - N/A   Mostly Cloudy
2:53 PM 78.1 °F 57.9 °F 50% 29.88 in 10.0 mi Variable 5.8 mph - N/A   Overcast
3:53 PM 77.0 °F 59.0 °F 54% 29.88 in 10.0 mi WNW 9.2 mph - N/A   Mostly Cloudy
4:53 PM 75.9 °F 57.9 °F 54% 29.87 in 10.0 mi NW 4.6 mph - N/A   Mostly Cloudy
5:53 PM 73.9 °F 57.0 °F 55% 29.88 in 10.0 mi NW 4.6 mph - N/A   Mostly Cloudy
6:53 PM 71.1 °F 57.9 °F 63% 29.90 in 10.0 mi North 3.5 mph - N/A   Overcast
7:53 PM 69.1 °F 57.9 °F 68% 29.92 in 10.0 mi North 4.6 mph - N/A   Overcast
8:53 PM 66.9 °F 57.0 °F 70% 29.93 in 10.0 mi NNE 4.6 mph - 0.00 in   Overcast
9:53 PM 64.0 °F 57.0 °F 78% 29.94 in 10.0 mi Calm Calm - N/A   Scattered Clouds
10:53 PM 64.9 °F 59.0 °F 81% 29.95 in 10.0 mi East 3.5 mph - N/A   Mostly Cloudy
11:53 PM 64.0 °F 55.9 °F 75% 29.94 in 10.0 mi ENE 4.6 mph - N/A   Overcast